Glenwood, MN

3:50 PM CDT on October 22, 2017 (GMT -0500)
Glenwood Municipal

Weather History for KGHW - November, 2012

Change the Weather History Date:

Monday, November 19, 2012

  Actual Average Record
Temperature  
Mean Temperature 42 °F -  
Max Temperature 53 °F 37 °F 57 °F (1989)
Min Temperature 30 °F 20 °F 0 °F (1986)
Degree Days  
Heating Degree Days 24    
Moisture  
Dew Point 36 °F    
Average Humidity 75    
Maximum Humidity 100    
Minimum Humidity 54    
Precipitation  
Precipitation 0.00 in - - ()
Sea Level Pressure  
Sea Level Pressure 30.02 in    
Wind  
Wind Speed 10 mph (SW)    
Max Wind Speed 15 mph    
Max Gust Speed 18 mph    
Visibility 9 miles    
Events      
Averages and records for this station are not official NWS values.
T = Trace of Precipitation, MM = Missing Value Source: NWS Daily Summary

Daily Weather History Graph

Daily Weather History Graph

Search for Another Location

Airport or City:

Trip Planner

Search our weather history database for the weather conditions in past years. The results will help you decide how hot, cold, wet, or windy it might be!

Date:

Astronomy

Nov. 19, 2012 Rise Set
Actual Time 7:26 AM CST 4:46 PM CST
Civil Twilight 6:54 AM CST 5:18 PM CST
Nautical Twilight 6:17 AM CST 5:55 PM CST
Astronomical Twilight 5:42 AM CST 6:30 PM CST
Moon 12:23 PM CST (11/19) 11:22 PM CST (11/19)
Length of Visible Light 10h 24m
Length of Day
9h 19m
Waxing Crescent, 41% of the Moon is Illuminated
Nov 19
Waxing Crescent
Nov 20
First Quarter
Nov 28
Full
Dec 6
Last Quarter
Dec 13
New

Hourly Weather History & Observations

Time (CST) Temp. Windchill Dew Point Humidity Pressure Visibility Wind Dir Wind Speed Gust Speed Precip Events Conditions
12:13 AM 46.4 °F 40.4 °F 35.6 °F 66% 29.99 in 10.0 mi SSE 13.8 mph 18.4 mph N/A   Clear
12:53 AM 44.6 °F 38.4 °F 35.6 °F 71% 29.99 in 10.0 mi SSE 12.7 mph - N/A   Clear
1:13 AM 44.6 °F 38.1 °F 35.6 °F 71% 29.99 in 10.0 mi SSE 13.8 mph - N/A   Clear
1:33 AM 44.6 °F 38.4 °F 35.6 °F 71% 29.98 in 10.0 mi SSE 12.7 mph - N/A   Clear
1:53 AM 44.6 °F 37.8 °F 35.6 °F 71% 29.98 in 10.0 mi SSE 15.0 mph - N/A   Clear
2:13 AM 44.6 °F 38.4 °F 35.6 °F 71% 29.98 in 10.0 mi SSE 12.7 mph - N/A   Clear
2:33 AM 44.6 °F 38.1 °F 35.6 °F 71% 29.98 in 10.0 mi SSE 13.8 mph - N/A   Clear
2:53 AM 44.6 °F 38.4 °F 35.6 °F 71% 29.98 in 10.0 mi SSE 12.7 mph - N/A   Clear
3:13 AM 44.6 °F 37.8 °F 35.6 °F 71% 29.97 in 10.0 mi South 15.0 mph - N/A   Clear
3:33 AM 44.6 °F 38.4 °F 35.6 °F 71% 29.97 in 10.0 mi SSE 12.7 mph - N/A   Clear
3:53 AM 42.8 °F 36.6 °F 35.6 °F 76% 29.97 in 10.0 mi SSE 11.5 mph - N/A   Clear
4:14 AM 42.8 °F 36.2 °F 35.6 °F 76% 29.96 in 10.0 mi SSE 12.7 mph - N/A   Clear
4:33 AM 42.8 °F 36.6 °F 35.6 °F 76% 29.97 in 10.0 mi SSE 11.5 mph - N/A   Clear
4:53 AM 42.8 °F 37.0 °F 35.6 °F 76% 29.97 in 10.0 mi SSE 10.4 mph - N/A   Scattered Clouds
5:14 AM 42.8 °F 37.0 °F 35.6 °F 76% 29.97 in 10.0 mi SSE 10.4 mph - N/A   Scattered Clouds
5:33 AM 42.8 °F 37.0 °F 35.6 °F 76% 29.98 in 10.0 mi SSE 10.4 mph - N/A   Scattered Clouds
5:53 AM 44.6 °F 39.2 °F 35.6 °F 71% 29.98 in 10.0 mi SSE 10.4 mph - N/A   Mostly Cloudy
6:14 AM 44.6 °F 38.4 °F 37.4 °F 76% 29.97 in 10.0 mi SSE 12.7 mph - N/A   Overcast
6:33 AM 44.6 °F 38.4 °F 35.6 °F 71% 29.97 in 10.0 mi South 12.7 mph - N/A   Mostly Cloudy
6:53 AM 42.8 °F 38.6 °F 37.4 °F 81% 29.98 in 10.0 mi South 6.9 mph - N/A   Scattered Clouds
7:14 AM 44.6 °F 39.2 °F 37.4 °F 76% 29.98 in 10.0 mi South 10.4 mph - N/A   Overcast
7:33 AM 44.6 °F 39.7 °F 37.4 °F 76% 29.98 in 10.0 mi SSE 9.2 mph - N/A   Overcast
7:53 AM 44.6 °F 39.7 °F 37.4 °F 76% 29.99 in 10.0 mi South 9.2 mph - N/A   Overcast
8:14 AM 42.8 °F 37.5 °F 37.4 °F 81% 29.99 in 10.0 mi South 9.2 mph - N/A   Scattered Clouds
8:54 AM 44.6 °F 39.2 °F 37.4 °F 76% 29.99 in 10.0 mi South 10.4 mph - N/A   Clear
9:13 AM 46.4 °F 41.5 °F 37.4 °F 71% 29.99 in 10.0 mi South 10.4 mph - N/A   Clear
9:33 AM 48.2 °F - 37.4 °F 66% 30.00 in 10.0 mi South 9.2 mph - N/A   Clear
9:54 AM 48.2 °F - 37.4 °F 66% 30.00 in 10.0 mi SSW 10.4 mph - N/A   Clear
10:13 AM 50.0 °F - 37.4 °F 62% 30.01 in 10.0 mi SSW 10.4 mph - N/A   Clear
10:33 AM 50.0 °F - 37.4 °F 62% 30.01 in 10.0 mi SSW 8.1 mph - N/A   Clear
10:54 AM 50.0 °F - 37.4 °F 62% 30.01 in 10.0 mi SW 9.2 mph - N/A   Clear
11:13 AM 51.8 °F - 37.4 °F 58% 30.01 in 10.0 mi SW 5.8 mph - N/A   Clear
11:33 AM 51.8 °F - 37.4 °F 58% 30.01 in 10.0 mi West 8.1 mph - N/A   Clear
11:54 AM 51.8 °F - 37.4 °F 58% 30.00 in 10.0 mi WSW 5.8 mph - N/A   Clear
12:13 PM 51.8 °F - 37.4 °F 58% 30.00 in 10.0 mi Calm Calm - N/A   Clear
12:33 PM 51.8 °F - 37.4 °F 58% 30.00 in 10.0 mi Calm Calm - N/A   Clear
12:54 PM 51.8 °F - 37.4 °F 58% 29.99 in 10.0 mi Calm Calm - N/A   Clear
1:13 PM 53.6 °F - 37.4 °F 54% 29.99 in 10.0 mi Calm Calm - N/A   Clear
1:33 PM 53.6 °F - 37.4 °F 54% 30.00 in 10.0 mi Calm Calm - N/A   Unknown
1:54 PM 53.6 °F - 37.4 °F 54% 30.00 in 10.0 mi West 8.1 mph - N/A   Unknown
2:13 PM 53.6 °F - 39.2 °F 58% 30.01 in 10.0 mi Calm Calm - N/A   Unknown
2:33 PM 53.6 °F - 39.2 °F 58% 30.01 in 10.0 mi West 4.6 mph - N/A   Unknown
2:53 PM 53.6 °F - 39.2 °F 58% 30.01 in 10.0 mi West 4.6 mph - N/A   Clear
3:14 PM 53.6 °F - 39.2 °F 58% 30.02 in 10.0 mi WSW 5.8 mph - N/A   Clear
3:33 PM 53.6 °F - 39.2 °F 58% 30.02 in 10.0 mi West 3.5 mph - N/A   Clear
3:54 PM 51.8 °F - 39.2 °F 62% 30.03 in 10.0 mi WNW 8.1 mph - N/A   Clear
4:13 PM 48.2 °F - 39.2 °F 71% 30.04 in 10.0 mi WNW 9.2 mph - N/A   Clear
4:34 PM 46.4 °F 42.9 °F 39.2 °F 76% 30.05 in 10.0 mi NW 6.9 mph - N/A   Clear
4:53 PM 44.6 °F 40.2 °F 37.4 °F 76% 30.05 in 10.0 mi NW 8.1 mph - N/A   Clear
5:13 PM 42.8 °F 38.6 °F 37.4 °F 81% 30.05 in 10.0 mi WNW 6.9 mph - N/A   Clear
5:34 PM 42.8 °F 38.6 °F 37.4 °F 81% 30.06 in 10.0 mi WNW 6.9 mph - N/A   Clear
5:53 PM 42.8 °F 36.6 °F 37.4 °F 81% 30.07 in 10.0 mi WNW 11.5 mph - N/A   Clear
6:13 PM 42.8 °F 38.6 °F 37.4 °F 81% 30.07 in 10.0 mi NW 6.9 mph - N/A   Clear
6:33 PM 41.0 °F 36.4 °F 37.4 °F 87% 30.07 in 10.0 mi NW 6.9 mph - N/A   Clear
6:53 PM 39.2 °F 35.0 °F 35.6 °F 87% 30.08 in 10.0 mi NNW 5.8 mph - N/A   Clear
7:14 PM 39.2 °F 34.2 °F 35.6 °F 87% 30.07 in 7.0 mi NNW 6.9 mph - N/A   Clear
7:33 PM 37.4 °F 32.8 °F 35.6 °F 93% 30.07 in 7.0 mi NNW 5.8 mph - N/A   Clear
7:53 PM 37.4 °F 32.1 °F 33.8 °F 87% 30.09 in 7.0 mi NW 6.9 mph - N/A   Clear
8:13 PM 35.6 °F 28.6 °F 33.8 °F 93% 30.09 in 7.0 mi NW 9.2 mph - N/A   Clear
8:33 PM 35.6 °F 28.6 °F 33.8 °F 93% 30.09 in 7.0 mi NW 9.2 mph - N/A   Clear
8:53 PM 35.6 °F 29.9 °F 33.8 °F 93% 30.09 in 7.0 mi NW 6.9 mph - N/A   Clear
9:13 PM 33.8 °F 27.7 °F 33.8 °F 100% 30.10 in 7.0 mi NNW 6.9 mph - N/A   Clear
9:33 PM 33.8 °F 27.7 °F 32.0 °F 93% 30.10 in 7.0 mi NW 6.9 mph - N/A   Clear
9:54 PM 33.8 °F 27.0 °F 33.8 °F 100% 30.10 in 5.0 mi NW 8.1 mph - N/A   Clear
10:13 PM 33.8 °F 27.7 °F 33.8 °F 100% 30.10 in 5.0 mi NW 6.9 mph - N/A   Clear
10:33 PM 33.8 °F 28.6 °F 32.0 °F 93% 30.10 in 5.0 mi NW 5.8 mph - N/A   Clear
10:54 PM 32.0 °F 27.5 °F 30.2 °F 93% 30.11 in 5.0 mi NW 4.6 mph - N/A   Clear
11:13 PM 32.0 °F 27.5 °F 30.2 °F 93% 30.10 in 5.0 mi NNW 4.6 mph - N/A   Clear
11:34 PM 30.2 °F 24.3 °F 30.2 °F 100% 30.11 in 4.0 mi WNW 5.8 mph - N/A   Clear
11:53 PM 30.2 °F 23.4 °F 30.2 °F 100% 30.11 in 4.0 mi NNW 6.9 mph - N/A   Clear